Tracking 19795 objects as of 17-Jul-2019
HD Live streaming from Space Station
objects crossing your sky now

LEMUR 2 ANGELA

Track LEMUR 2 ANGELA now!
10-day predictions
LEMUR 2 ANGELA is classified as:


NORAD ID: 42752
Int'l Code: 2017-019B
Perigee: 474.8 km
Apogee: 488.5 km
Inclination: 51.6 °
Period: 94.1 minutes
Semi major axis: 6852 km
RCS: Unknown
Launch date: April 18, 2017
Source: United States (US)
Launch site: AIR FORCE EASTERN TEST RANGE (AFETR)
aabbcc
Your satellite tracking list
Your tracking list is empty




NASA's NSSDC Master Catalog

Two Line Element Set (TLE):
1 42752U 17019B   19198.42007589  .00001022  00000-0  46402-4 0  9996
2 42752  51.6422 351.2747 0009983 179.2138 180.8860 15.30448209117614
Source of the keplerian elements: AFSPC